Location: Madrid
(40.4000°N, 3.6830°W)
Time: 22:50:02
(UTC+01:00)

ISS - Pass Details

Date: 16 January 2018
Orbit: 402 x 407 km, 51.6° (Epoch: 23 January)

Event Time Altitude Azimuth Distance (km) Brightness Sun altitude
Exits shadow 06:09:25 21° 106° (ESE) 974 -1.2 -27.4°
Drops below altitude 10° 06:10:40 10° 113° (ESE) 1,460 -0.1 -27.2°
Sets 06:12:46 0° 118° (ESE) 2,318 1.1 -26.8°
